Home > Weather > Durango > Past weeks

Flag for USA Past Weather in Durango, Colorado, USA — Yesterday and Last 2 Weeks

Now
58 °F

Clear.


Feels Like: 58 °F
Forecast: 46 / 70 °F
Wind: 5 mph from North

Location: Durango-La Plata County Airport

Current Time: Aug 26, 2016 at 11:01:38 PM

Latest Report: Aug 26, 2016 at 9:53 PM


Visibility: 10 mi

Pressure: 30.06 "Hg (23.73 "Hg at 1989m altitude)

Humidity: 62%

Dew Point: 45 °F

Location of DurangoLocation

Past Weather in Durango — Graph

°F

Durango Temperature Yesterday

Maximum temperature yesterday: 74 °F (at 2:53 PM)
Minimum temperature yesterday: 44 °F (at 6:53 AM)
Average temperature yesterday: 59 °F

High & Low Weather Summary for the Past Weeks

 TemperatureHumidityPressure
High85 °F (Aug 15, 3:53 PM)96% (Aug 25, 2:53 AM)30.29 "Hg (Aug 25, 2:53 AM)
Low44 °F (Aug 25, 6:53 AM)11% (Aug 12, 1:53 PM)29.84 "Hg (Aug 20, 4:53 PM)
Average63 °F53%30.05 "Hg
* Reported Aug 11 8:53 PM — Aug 26 8:53 PM, Durango, Weather by CustomWeather, © 2016

Note: Actual official high and low records may vary slightly from our data, if they occured in-between our weather recording intervals... More about our weather records

Advertising

Durango Weather History for the Previous 24 Hours

Scroll right to see more
 ConditionsComfort  
Time TempWeatherWind HumidityBarometerVisibility
8:53 PM
Fri, Aug 26
64 °FClear.5 mph40%30.02 "Hg10 mi
7:53 PM66 °FSunny.7 mph37%30.01 "Hg10 mi
6:53 PM69 °FSunny.8 mph32%29.99 "Hg10 mi
5:53 PM72 °FSunny.10 mph30%29.97 "Hg10 mi
4:53 PM73 °FPassing clouds.10 mph30%29.98 "Hg10 mi
3:53 PM70 °FSunny.3 mph37%30.01 "Hg10 mi
2:53 PM68 °FPartly sunny.14 mph42%30.03 "Hg10 mi
1:50 PM69 °FThunderstorms. Scattered clouds.9 mph38%30.05 "Hg10 mi
12:53 PM67 °FSunny.7 mph42%30.08 "Hg10 mi
11:53 AM64 °FSunny.No wind47%30.10 "Hg10 mi
10:53 AM62 °FSunny.5 mph58%30.13 "Hg10 mi
9:53 AM58 °FSunny.3 mph67%30.15 "Hg10 mi
8:53 AM56 °FSunny.3 mph70%30.15 "Hg10 mi
7:53 AM52 °FOvercast.No wind83%30.13 "Hg10 mi
6:53 AM51 °FOvercast.3 mph86%30.10 "Hg10 mi
5:53 AM51 °FOvercast.3 mph86%30.06 "Hg10 mi
4:53 AM51 °FPassing clouds.6 mph83%30.05 "Hg10 mi
3:53 AM52 °FOvercast.5 mph80%30.05 "Hg10 mi
2:53 AM53 °FLight rain. Passing clouds.7 mph74%30.03 "Hg10 mi
1:53 AM53 °FMostly cloudy.No wind77%30.08 "Hg10 mi
12:53 AM53 °FOvercast.3 mph77%30.07 "Hg10 mi
11:53 PM
Thu, Aug 25
55 °FPassing clouds.5 mph90%30.08 "Hg10 mi
Weather by CustomWeather, © 2016

See weather overviewHow to use our weather pages